Location: Kitchener
(43.4500°N, 80.5000°W)
Time: 20:27:21
(UTC-04:00)

Cosmos 1939 Rocket - Visible Passes

Search period start: 30 April 2016 00:00
Search period end: 10 May 2016 00:00
Orbit: 535 x 587 km, 97.6° (Epoch: 30 April)

Date Brightness Start Highest point End Pass type
(mag) Time Alt. Az. Time Alt. Az. Time Alt. Az.
30 Apr 3.8 21:06:38 10° SE 21:10:13 32° ENE 21:13:53 10° N visible
30 Apr 5.1 22:42:24 11° SW 22:45:14 21° W 22:48:21 10° NW visible
01 May 3.8 21:05:47 10° SE 21:09:22 32° ENE 21:13:02 10° N visible
01 May 5.1 22:41:27 11° SW 22:44:23 21° W 22:47:33 10° NW visible
02 May 3.9 21:04:57 10° SE 21:08:32 31° ENE 21:12:10 10° N visible
02 May 5.1 22:40:30 11° SW 22:43:31 22° W 22:46:44 10° NW visible
03 May 3.9 21:04:07 10° SE 21:07:41 31° ENE 21:11:19 10° N visible
03 May 5.0 22:39:34 10° SW 22:42:39 22° W 22:45:54 10° NW visible
04 May 3.9 21:03:16 10° SE 21:06:50 30° ENE 21:10:27 10° N visible
04 May 5.0 22:38:37 10° SSW 22:41:47 23° W 22:45:06 10° NW visible
05 May 3.9 21:02:26 10° SE 21:05:59 30° ENE 21:09:35 10° N visible
05 May 5.0 22:37:41 10° SSW 22:40:56 23° W 22:44:16 10° NW visible
06 May 4.0 21:01:36 10° SE 21:05:08 29° ENE 21:08:43 10° N visible
06 May 4.9 22:36:46 10° SSW 22:40:05 24° W 22:43:26 10° NW visible
07 May 4.0 21:00:46 10° SE 21:04:17 29° ENE 21:07:52 10° N visible
07 May 4.9 22:35:53 10° SSW 22:39:13 24° W 22:42:37 10° NW visible
08 May 4.9 22:34:58 10° SSW 22:38:22 25° W 22:41:48 10° NW visible
09 May 4.8 22:34:04 10° SSW 22:37:29 25° W 22:40:58 10° NW visible
